Location: Melizzano
(41.1500°N, 14.5000°E)
Time: 20:43:55
(UTC+00:00)

Cosmos 1898 Rocket - Pass Details

Date: 11 May 2021
Orbit: 753 x 784 km, 74.0° (Epoch: 21 June)

Event Time Altitude Azimuth Distance (km) Brightness Sun altitude
Exits shadow 21:07:18 59° 83° (E) 899 3.6 -25.4°
Drops below altitude 10° 21:12:09 10° 27° (NNE) 2,343 6.4 -25.8°
Sets 21:14:34 0° 24° (NNE) 3,278 7.3 -26.0°
